Temp
28 25 25 22 24 24 29 32 34 33 32 30 29 28 28 27 29 24 26 25 23 22 22 22 22 22 21 22 22 22 22 22 22 22 22 21 21 22 21 21 21 21 21 21 21 21 21 21 21
27 25 24 21 24 26 27 33 32 33 33 28 27 27 28 26 29 28 25 24 24 22 22 22 22 22 21 22 22 22 22 22 22 22 21 22 22 22 21 21 22 21 21 21 21 21 21 21 21
25 26 23 24 25 27 30 32 32 34 34 34 29 29 31 28 29 28 25 25 24 23 23 23 22 22 21 22 22 22 22 22 22 22 22 21 22 21 22 21 21 21 21 21 21 21 21 22 22
27 23 23 23 28 31 33 33 34 34 35 33 30 30 31 31 29 27 25 25 23 23 24 23 22 21 21 21 22 22 22 22 22 21 21 22 22 21 21 21 21 21 21 21 21 21 22 22 23
28 21 24 28 32 34 34 35 35 34 33 32 31 29 28 29 29 27 26 25 23 23 24 23 22 22 21 21 21 22 22 22 21 21 22 22 22 21 21 21 21 21 21 21 21 22 22 22 23
23 23 28 29 35 36 35 36 36 35 33 32 31 29 28 29 29 28 25 24 24 23 22 23 22 22 22 22 21 21 21 21 21 21 21 21 21 21 21 21 21 22 22 22 22 22 22 22 22
23 22 25 31 32 34 36 37 36 34 33 32 32 28 27 29 30 27 26 25 24 23 22 23 22 22 21 21 21 21 21 21 21 22 21 21 21 21 21 22 22 23 23 23 24 23 23 23 23
23 23 26 30 32 34 36 37 37 35 34 34 32 28 27 29 30 30 27 25 24 23 23 23 22 21 21 21 21 21 22 21 21 21 22 21 22 21 22 23 23 24 24 24 24 25 25 24 22
25 24 25 32 33 34 37 35 36 36 35 35 34 31 30 31 31 31 28 26 24 23 24 24 24 23 22 22 22 22 22 22 22 22 22 21 22 23 23 24 24 25 25 25 25 25 25 22 23
25 26 30 35 34 32 37 35 35 35 34 33 32 32 31 31 31 30 30 27 26 25 24 24 24 24 22 23 23 22 22 23 22 23 23 23 23 24 24 24 25 25 26 26 26 26 23 23 24
25 28 32 35 37 36 37 36 36 32 32 32 31 31 31 30 30 30 30 31 29 26 25 25 25 24 24 23 24 24 23 24 23 23 24 24 23 23 24 24 25 26 25 26 26 27 24 24 25
27 31 32 38 37 37 36 36 34 33 32 33 32 31 31 30 29 30 30 31 31 28 27 26 26 25 24 25 25 24 24 24 24 24 24 24 24 25 25 25 26 27 27 27 27 26 26 25 25
30 33 37 38 39 37 36 35 36 35 35 34 33 32 31 30 30 31 32 31 31 31 29 27 27 26 26 26 26 24 24 24 25 25 25 25 25 26 26 26 26 26 27 27 27 27 25 23 24
35 33 33 37 35 38 36 32 34 32 34 33 33 31 31 31 31 31 32 31 31 31 31 28 27 27 27 28 26 26 25 26 25 26 26 25 26 26 27 27 27 27 28 27 28 28 26 25 26
31 30 31 35 33 34 34 30 31 32 31 33 32 32 32 31 32 32 33 32 31 31 31 28 28 28 27 27 27 27 27 27 26 26 27 26 26 26 26 26 27 27 27 27 28 27 26 25 23
29 28 26 32 32 33 33 29 29 29 28 30 33 33 33 31 32 33 33 33 31 31 31 29 29 29 27 27 27 27 27 27 27 26 27 26 26 26 26 26 26 27 27 27 27 26 24 25 25
26 27 27 29 34 32 30 28 30 30 30 29 30 33 33 31 32 32 33 33 32 31 31 29 28 28 27 26 27 27 27 27 27 27 27 27 27 26 25 26 26 27 27 26 26 26 25 26 25
27 29 29 28 31 32 32 27 27 26 27 29 27 26 30 32 31 32 33 33 32 31 30 29 28 27 27 26 26 26 26 27 27 27 27 27 27 27 26 26 26 26 26 26 25 25 25 25 25
28 30 31 32 32 33 32 27 28 27 26 27 27 26 28 28 32 33 33 33 32 31 30 29 28 27 26 26 25 25 25 26 27 27 28 27 27 26 26 26 26 25 26 26 25 25 23 23 24
28 31 33 35 34 33 31 29 29 27 25 26 28 25 27 28 27 32 32 32 30 30 30 29 29 27 26 26 25 25 25 26 27 27 28 28 27 26 26 26 25 25 25 25 25 25 23 23 23
33 35 35 36 36 34 33 29 28 28 27 28 27 28 28 28 28 29 32 32 30 28 29 29 29 28 27 26 26 25 25 26 27 28 28 28 27 27 26 25 25 25 25 25 24 24 23 22 21
35 37 38 37 34 32 33 29 28 30 29 31 33 29 31 27 27 27 29 30 31 28 28 29 28 28 27 26 26 26 25 25 27 27 28 27 27 26 26 26 25 25 26 24 24 23 22 22 21
36 38 37 37 33 31 33 29 31 29 30 30 33 34 32 32 30 27 28 30 32 28 28 29 28 27 26 26 26 26 26 26 27 27 27 27 26 26 27 24 24 24 24 24 23 23 22 21 20
39 37 35 34 29 27 32 31 31 29 32 33 33 34 34 34 32 28 27 27 31 29 28 26 27 27 26 27 26 26 26 25 25 25 25 25 25 24 23 23 23 23 22 22 21 21 20 20 20
36 33 32 28 29 27 33 32 30 33 34 34 34 34 33 34 32 30 28 29 25 25 26 25 25 25 26 26 25 25 24 25 25 23 22 22 21 20 20 20 21 21 21 21 21 21 20 19 19
35 35 30 32 30 32 35 32 32 34 34 34 34 33 33 33 31 30 31 25 25 24 26 26 24 25 24 24 24 24 24 23 22 20 21 20 20 21 20 19 20 21 21 20 19 19 19 19 19
36 32 35 33 34 32 34 33 35 34 34 35 35 33 32 32 31 30 28 25 25 24 24 24 23 26 24 23 23 23 22 21 19 20 23 23 22 20 18 19 19 19 19 19 19 18 18 19 19
37 37 32 30 32 33 32 33 31 34 33 34 34 31 31 30 30 30 28 26 25 26 27 26 25 25 25 23 23 23 22 21 20 21 23 21 18 19 17 18 18 18 18 18 18 18 18 18 19
35 34 33 32 31 31 30 31 31 33 34 34 30 30 29 28 28 27 26 28 28 27 26 24 25 23 23 21 22 21 19 21 20 22 23 21 20 18 18 18 18 18 18 18 18 18 18 18 19
38 37 35 28 31 30 29 30 35 33 34 31 30 30 27 27 26 25 25 26 25 24 23 22 22 22 22 22 20 20 19 19 19 21 20 22 19 19 19 18 17 17 17 17 17 18 18 18 19
Height
771 777 775 770 800 799 787 772 749 758 760 761 757 765 780 781 776 813 791 799 803 808 812 814 816 817 820 821 824 826 826 826 827 829 832 834 836 837 838 840 841 843 844 845 847 847 847 849 850
776 780 782 793 812 815 806 760 770 760 753 758 761 766 775 794 771 778 793 799 803 807 811 813 816 818 820 822 824 826 827 827 828 830 833 834 836 838 840 842 842 844 847 847 848 848 848 850 853
777 780 789 802 802 802 793 767 767 754 747 749 772 767 772 784 779 781 792 797 803 806 810 813 815 818 821 823 824 826 827 828 829 831 833 835 837 839 841 843 845 848 849 850 851 850 851 854 855
776 786 794 811 799 770 763 759 752 752 746 751 761 780 775 774 779 784 792 797 802 806 809 812 815 819 821 823 825 827 827 828 830 832 834 836 838 841 843 845 847 850 851 852 852 853 853 855 857
781 796 809 792 772 755 746 743 744 752 753 760 762 784 783 778 782 787 792 796 800 806 809 812 816 819 821 823 825 826 827 828 831 833 836 838 840 842 844 846 848 850 851 852 853 853 854 855 857
786 793 799 797 765 751 746 737 739 750 755 763 770 780 786 782 783 787 791 796 800 803 808 811 816 819 822 824 825 827 827 829 832 834 837 839 841 844 845 847 849 850 850 853 853 854 855 857 859
790 807 810 782 776 761 747 732 745 751 756 763 763 786 785 782 784 788 792 795 800 804 807 810 815 819 822 825 827 828 829 830 831 834 836 839 842 845 846 847 849 849 849 851 852 853 854 857 859
775 790 797 775 776 769 742 738 738 747 757 751 756 783 791 782 784 787 793 796 799 803 807 809 815 819 822 825 828 829 830 831 833 835 837 839 842 845 846 847 848 848 847 849 850 851 852 857 861
775 798 805 775 768 757 738 750 742 741 749 748 748 762 772 779 784 786 794 799 801 804 805 808 811 817 821 823 825 827 829 831 833 834 837 839 842 844 846 847 848 847 847 847 849 849 851 858 858
787 795 777 745 741 765 740 745 747 753 756 761 762 766 772 778 783 785 788 795 798 802 804 806 810 812 817 820 823 825 827 829 831 833 836 838 841 844 845 846 847 846 846 847 847 847 853 853 855
789 782 755 743 732 735 738 745 742 756 765 760 770 770 772 777 781 783 785 788 793 797 800 803 806 810 813 816 819 822 825 827 829 831 834 837 840 843 844 846 847 846 846 846 845 846 849 850 854
788 754 746 728 727 733 747 744 751 750 754 751 758 766 771 776 779 781 783 785 789 794 796 800 802 807 812 814 816 818 821 823 825 828 832 835 837 840 843 845 846 846 845 845 845 846 847 850 854
773 756 732 724 724 733 738 749 748 750 745 751 758 766 771 774 776 778 780 783 787 791 795 797 800 804 807 811 814 816 819 821 822 825 828 832 835 839 841 843 844 845 844 845 846 846 845 851 853
747 750 745 731 741 734 750 761 750 762 755 755 761 768 770 772 773 776 778 782 785 790 793 798 801 804 805 810 812 815 817 818 820 822 826 830 833 836 838 840 841 842 843 843 844 844 847 849 847
753 766 757 744 750 754 750 777 774 761 763 760 759 763 766 770 770 773 776 781 784 789 793 797 801 803 804 809 811 812 815 818 819 820 823 826 829 833 836 838 839 839 841 842 844 844 845 849 851
777 777 802 758 754 753 757 798 772 762 767 771 760 759 761 764 767 771 773 778 783 786 789 793 797 801 804 805 808 810 813 816 818 819 821 824 827 830 833 837 838 839 841 841 842 845 846 847 849
794 808 798 777 745 756 769 791 762 757 762 767 767 761 761 762 764 770 773 776 780 784 787 789 792 797 801 805 807 808 810 813 816 817 819 820 822 826 830 833 835 837 838 838 841 844 845 843 846
811 796 790 790 763 761 776 794 780 771 777 774 772 776 768 762 760 762 767 772 777 780 785 789 791 793 798 802 806 808 808 809 813 815 816 818 819 822 826 828 831 833 834 836 838 840 844 845 843
784 784 782 766 754 765 773 784 776 780 783 779 767 772 774 769 758 760 763 763 770 775 779 784 788 791 795 799 803 806 807 808 811 814 815 816 817 820 823 825 828 831 832 834 837 837 839 843 841
783 779 772 748 746 761 771 781 771 776 769 773 754 767 768 766 754 756 759 763 766 769 773 776 779 785 789 792 797 804 806 809 811 813 814 814 817 820 822 824 824 826 828 830 830 835 835 837 838
769 763 761 755 744 749 757 780 782 770 763 765 758 757 760 753 753 756 752 757 760 764 768 769 774 780 786 791 797 801 805 806 808 810 811 812 815 816 818 820 823 823 823 825 825 828 834 833 836
771 738 742 746 763 787 754 812 782 763 761 754 742 749 747 751 753 752 746 748 750 760 764 769 774 776 782 788 792 795 798 800 803 806 808 809 811 814 816 816 817 817 819 821 823 825 829 830 831
757 731 743 743 766 780 772 801 780 767 769 760 742 738 740 744 743 747 744 745 751 755 753 761 770 775 781 786 786 791 793 796 799 802 803 805 809 812 810 815 817 815 818 819 822 825 827 826 828
723 737 742 753 788 825 775 782 786 780 760 746 739 734 735 733 737 740 739 744 751 755 766 773 769 772 773 782 787 791 793 794 797 803 807 810 813 815 817 816 815 816 819 820 821 822 824 824 826
738 761 797 834 818 828 757 781 775 747 738 737 737 733 732 730 733 731 739 745 763 761 767 774 776 770 771 776 787 780 790 787 793 796 801 804 807 815 814 812 811 811 814 817 818 819 819 822 824
750 757 803 818 820 795 746 789 773 734 729 727 725 726 728 731 731 733 735 746 755 757 759 761 759 769 770 775 779 781 779 781 786 789 791 802 804 809 813 811 807 807 810 817 818 819 820 821 822
749 776 742 774 763 788 771 763 744 738 737 730 728 728 732 732 732 734 737 744 749 754 756 755 760 762 767 770 774 776 774 777 781 784 790 787 792 800 806 809 805 802 805 811 813 818 819 819 820
737 730 782 784 809 809 789 780 789 756 750 734 732 735 733 731 733 735 738 742 745 747 749 753 756 757 761 762 764 767 768 774 777 782 783 789 796 800 809 806 807 801 803 808 812 816 817 819 818
749 762 760 769 784 812 821 800 749 746 736 734 739 734 734 736 737 738 740 743 747 751 754 755 756 755 755 757 758 763 766 772 775 778 779 784 789 797 800 803 806 802 802 807 811 813 815 817 817
722 739 751 806 799 788 800 799 726 731 726 732 735 734 735 735 738 739 742 744 746 749 751 754 755 757 759 758 758 760 765 770 772 774 780 781 784 790 796 798 801 801 803 804 805 810 813 813 817
Wind_Speed
5 8 12 10 4 3 3 7 7 12 10 8 13 9 8 12 3 6 27 31 30 27 24 20 18 18 18 18 17 15 14 14 13 12 12 11 11 11 11 11 11 11 11 10 10 9 9 9 7
5 10 6 3 1 1 7 12 12 14 12 19 16 5 8 1 5 20 28 34 30 29 25 22 19 18 18 17 17 15 13 12 11 11 11 11 11 12 11 11 12 12 11 10 10 9 8 7 6
15 8 2 2 4 3 7 12 11 8 7 15 7 9 6 12 20 14 40 33 30 27 24 23 20 18 17 17 15 14 13 11 11 10 11 12 12 11 12 11 11 12 11 11 10 8 8 8 7
7 7 2 2 7 4 13 10 13 8 9 22 18 13 11 21 10 28 40 35 34 26 23 21 19 18 17 16 15 14 13 13 11 11 11 11 13 11 11 10 11 10 10 10 9 8 7 7 7
11 2 5 5 7 7 8 15 12 10 16 22 21 17 15 28 33 38 38 33 34 28 24 21 19 16 17 16 15 14 14 13 12 12 12 11 12 10 10 10 10 9 8 9 7 6 5 5 5
4 2 3 3 14 10 8 6 14 17 22 21 19 16 8 29 30 28 40 36 33 29 27 24 21 17 17 15 15 14 14 13 12 12 12 11 11 10 9 9 8 7 7 7 6 4 3 3 5
5 3 4 10 16 10 4 2 14 11 17 15 17 15 8 12 24 36 37 36 27 29 28 26 22 17 16 14 14 13 13 12 14 13 11 12 11 9 9 8 8 7 7 6 5 4 2 3 5
5 4 4 6 6 6 7 14 16 12 12 19 22 7 12 15 23 23 38 38 35 28 27 25 21 18 17 14 13 13 11 12 12 12 11 12 11 10 9 8 8 8 7 6 5 3 2 4 8
1 1 3 4 2 6 8 16 13 9 5 11 6 19 22 29 26 19 30 34 32 32 28 25 23 18 17 17 16 14 13 11 12 11 13 12 12 12 11 9 7 5 5 4 2 1 2 5 6
3 3 6 7 8 12 13 16 12 8 12 16 18 21 30 27 25 17 15 28 29 31 31 25 24 24 24 19 19 16 15 14 14 12 14 14 12 11 9 7 6 4 3 1 2 4 3 4 3
2 6 10 11 12 10 13 15 6 7 2 18 21 19 18 23 20 17 17 22 27 32 35 29 26 28 27 23 21 19 17 14 14 11 10 13 12 15 14 10 8 5 3 2 3 6 4 4 4
6 13 10 2 9 16 9 7 10 11 8 20 20 18 15 16 11 18 17 25 20 30 34 36 28 31 30 26 22 22 21 18 15 13 12 12 10 16 17 12 9 3 2 1 4 3 5 5 14
20 9 4 6 5 9 16 9 9 16 19 19 18 16 13 12 13 23 22 30 26 17 28 37 30 32 31 27 25 24 24 24 20 17 14 13 11 17 12 6 6 5 6 3 2 3 4 16 14
5 8 17 4 16 8 13 13 11 12 7 18 16 13 11 12 16 20 23 26 30 23 20 36 29 25 28 24 24 22 28 26 26 19 16 13 13 7 12 8 10 8 8 5 3 5 6 6 2
6 7 15 8 15 8 5 7 5 7 12 12 16 15 14 12 21 20 23 28 33 28 25 37 28 23 28 17 17 18 20 25 25 22 13 17 16 9 11 9 11 10 9 9 2 2 7 5 8
4 6 5 2 5 6 9 1 8 3 7 9 13 15 15 12 15 25 22 26 30 30 29 30 27 23 18 18 19 18 16 18 21 20 18 17 17 12 12 13 11 9 12 3 4 8 8 8 13
6 2 3 10 5 2 5 6 17 6 8 6 6 11 11 10 11 22 23 25 25 30 31 30 25 23 21 18 20 19 19 14 20 18 20 19 17 19 12 13 9 7 6 6 6 10 9 5 11
7 4 4 6 4 4 1 12 3 10 11 8 7 8 5 10 9 27 29 25 26 29 32 30 26 27 28 22 19 22 20 19 17 23 24 23 18 22 19 15 10 9 10 11 15 12 6 4 6
10 6 6 8 13 2 3 14 17 8 4 11 15 8 9 7 9 25 30 32 32 34 33 32 26 30 30 26 23 21 23 21 21 18 27 27 24 21 19 16 15 11 9 7 6 8 7 3 3
11 10 6 5 1 8 4 8 14 18 19 14 22 14 14 9 5 17 25 26 33 39 38 34 34 28 35 33 29 24 23 22 22 22 23 23 25 22 21 19 15 11 8 10 11 8 8 4 2
14 4 8 5 13 15 5 2 8 17 17 18 18 17 16 18 16 12 17 26 32 36 40 39 35 32 36 34 28 26 23 24 24 22 23 24 25 24 24 22 13 14 9 13 16 10 11 9 5
4 6 6 8 4 2 7 1 6 5 5 7 17 25 22 16 16 10 16 20 33 33 40 39 37 37 36 34 31 29 26 20 22 26 28 29 31 22 16 17 20 17 19 20 12 12 12 9 7
7 5 6 9 15 8 4 5 5 4 5 7 8 9 8 11 19 13 14 28 20 35 43 44 39 37 35 36 34 30 29 24 11 11 9 20 17 17 20 11 15 12 13 15 14 14 10 7 5
7 9 8 5 7 2 8 5 4 5 7 5 7 8 7 5 10 17 25 27 22 36 24 33 37 39 39 40 33 27 20 6 5 7 5 4 6 7 10 13 14 18 17 15 11 8 7 7 9
9 7 4 4 1 6 5 6 7 8 8 8 7 8 8 4 6 7 15 13 26 26 15 17 22 33 39 39 32 25 19 16 5 10 4 4 8 5 6 9 11 11 9 8 12 12 11 11 13
7 2 4 3 4 4 4 6 5 9 9 8 7 8 9 7 8 13 10 18 23 27 30 27 41 27 30 35 35 28 25 34 14 23 21 14 4 6 10 7 7 4 4 10 10 9 9 9 10
6 5 6 2 5 5 3 6 6 9 7 6 6 9 9 9 8 11 8 23 23 27 32 40 40 30 24 32 41 37 31 26 28 27 29 32 25 22 24 21 18 12 7 10 10 9 10 10 9
6 4 6 6 3 5 4 3 6 6 7 7 7 9 8 8 9 8 8 14 19 26 32 32 33 32 34 39 42 41 40 36 37 32 26 14 14 13 16 10 12 12 13 12 9 10 8 10 7
2 3 4 1 2 1 2 5 8 8 7 6 10 8 9 10 9 8 7 16 13 13 8 7 15 19 27 32 34 34 39 39 38 35 21 15 13 14 13 12 11 11 13 15 13 10 8 10 9
5 4 4 5 7 3 5 5 8 8 6 14 9 8 8 9 8 7 7 12 13 13 13 13 11 13 13 22 27 32 33 34 34 33 20 15 17 17 12 12 15 14 15 14 13 12 11 10 9
Wind_Direction
184 113 88 41 33 242 291 121 107 88 65 76 84 70 73 357 118 153 133 143 142 141 139 135 134 134 137 146 148 145 135 123 120 123 123 120 122 117 113 110 111 113 119 123 122 121 119 119 120
123 136 56 75 238 28 315 91 89 91 103 103 71 64 73 48 111 118 125 136 145 140 141 140 139 140 138 146 154 147 140 130 127 126 136 131 124 119 113 110 112 112 107 113 113 116 113 113 103
89 121 67 164 220 252 107 99 98 119 140 119 104 154 72 107 117 125 138 141 142 141 143 141 144 139 140 143 147 150 145 138 132 146 135 131 126 118 121 122 122 114 107 102 97 98 96 95 85
107 48 360 229 262 239 117 132 134 146 95 103 117 90 126 119 94 126 134 140 139 144 141 142 145 141 142 141 145 146 145 146 150 144 140 135 129 128 125 127 121 117 108 102 99 89 79 79 78
144 20 243 227 132 86 131 144 156 133 100 100 102 99 94 104 125 136 137 138 137 147 142 145 145 146 147 150 154 152 149 148 148 146 141 139 138 140 132 130 125 123 116 110 105 102 86 70 56
82 105 302 285 100 91 78 54 106 94 103 104 104 107 106 129 145 141 139 137 146 146 145 145 144 153 147 154 151 150 150 146 148 150 147 147 140 142 135 137 134 136 136 126 125 115 111 76 28
104 102 263 297 36 81 89 95 114 122 119 126 124 112 140 138 151 146 139 141 145 146 146 145 149 152 150 153 151 153 151 151 159 154 157 155 150 149 151 149 144 150 152 145 144 145 139 92 41
137 110 289 298 97 84 70 75 79 89 122 130 137 138 151 154 155 154 147 142 145 145 147 144 148 150 148 152 155 157 160 163 165 162 161 157 160 164 164 156 149 156 159 153 146 128 87 60 36
75 71 239 266 5 137 132 88 79 94 109 146 112 138 139 152 146 171 144 144 145 149 147 149 151 154 156 160 160 160 160 161 168 174 171 172 172 162 155 151 143 167 170 171 160 165 131 84 83
146 226 245 201 191 72 131 124 129 110 97 82 111 128 141 147 153 173 148 154 153 154 158 158 156 156 166 168 170 169 168 178 184 186 183 181 174 175 166 165 172 195 185 217 291 319 89 183 133
225 205 195 218 208 151 103 115 121 99 127 129 132 137 146 145 165 172 165 157 160 160 163 165 165 168 168 173 169 166 173 169 177 179 188 184 185 220 203 196 193 208 219 25 11 352 225 182 77
263 244 258 143 175 110 113 123 144 145 175 135 136 144 154 157 171 170 184 165 172 161 169 170 171 175 174 182 174 170 174 173 177 187 204 211 230 191 190 216 201 153 129 130 302 348 164 110 87
245 318 211 49 75 109 119 202 100 94 116 123 131 146 160 164 184 175 195 166 166 184 172 172 173 173 184 185 185 186 186 186 188 190 196 204 198 188 183 172 160 223 223 243 193 45 120 105 106
167 355 346 306 15 119 58 31 57 29 41 131 139 157 172 178 190 180 188 170 169 175 170 170 176 171 181 184 185 194 197 192 192 188 194 191 194 188 198 200 199 185 182 205 281 352 102 104 25
32 22 342 42 27 47 23 14 103 351 353 152 157 170 183 187 190 175 188 173 167 173 170 164 167 147 158 168 175 157 185 188 195 194 189 195 192 207 196 197 184 200 237 188 194 284 334 64 128
38 79 332 281 354 68 29 75 290 26 20 312 183 180 183 182 189 174 174 171 171 171 173 169 176 183 175 184 190 184 172 193 191 201 198 194 201 193 204 212 230 280 185 163 177 134 86 88 69
1 2 329 306 92 121 133 159 220 204 192 266 289 191 182 181 177 163 166 168 170 175 177 172 178 188 188 194 199 204 199 198 196 211 202 205 216 204 211 206 239 216 159 133 130 140 153 99 90
272 180 231 263 310 250 331 30 117 275 354 322 313 342 219 184 175 162 168 174 175 179 177 178 183 185 191 198 208 212 208 209 220 209 211 216 211 204 207 209 218 184 181 149 115 122 141 131 95
241 248 219 247 225 213 72 169 196 167 53 348 309 294 270 268 185 171 172 177 174 173 172 177 176 183 186 190 197 212 216 218 242 237 219 216 215 202 206 211 223 197 194 193 190 138 159 148 89
227 222 245 219 155 168 207 182 185 162 175 195 229 244 246 192 212 192 175 175 167 170 175 177 184 185 191 192 197 205 218 232 238 239 221 227 208 205 211 214 217 196 184 202 209 210 176 193 173
243 311 300 304 161 192 148 14 129 198 196 198 221 239 231 172 199 224 171 176 172 174 179 182 184 190 193 197 195 200 217 230 234 236 245 218 199 204 208 207 211 209 187 259 234 234 203 177 190
279 222 304 317 107 220 134 237 312 248 325 204 227 212 192 171 199 207 182 186 179 178 183 186 189 191 195 193 194 199 212 222 232 238 241 208 204 194 192 218 217 233 256 242 228 215 227 202 180
253 325 281 283 61 352 204 101 260 59 297 275 82 81 100 171 202 190 189 208 199 174 187 187 192 193 192 197 198 203 212 226 239 229 213 209 208 203 213 218 227 219 221 221 220 226 237 240 213
293 293 292 56 94 292 210 118 257 182 195 108 98 94 83 19 168 197 202 198 208 178 180 183 196 200 197 200 197 208 208 177 114 128 163 200 228 215 209 211 196 190 180 192 201 210 239 251 257
344 351 23 48 263 211 206 167 210 152 120 125 158 165 139 189 52 99 186 187 90 111 175 189 222 207 201 199 196 181 187 157 161 231 179 182 154 137 131 155 178 164 183 202 223 209 224 231 237
280 293 119 282 237 289 226 140 222 145 153 165 180 176 153 116 77 77 96 123 146 152 178 193 238 221 205 194 191 185 167 181 210 213 193 222 224 249 269 194 145 164 238 264 261 243 220 214 217
316 348 253 247 284 76 104 42 62 108 118 116 129 81 101 115 99 97 112 139 158 171 189 198 220 236 207 189 192 192 184 196 210 199 217 226 222 235 224 239 236 243 222 230 220 211 201 203 212
176 246 3 354 9 344 343 113 171 158 163 163 118 110 93 98 93 77 102 131 170 184 198 216 233 227 208 195 186 190 200 204 214 209 212 221 214 223 218 201 204 186 185 204 216 223 224 217 195
156 300 31 87 102 186 8 294 181 174 167 166 119 115 107 91 85 72 63 60 76 95 157 189 216 198 194 182 188 186 189 206 213 213 209 220 198 189 178 193 219 211 204 209 210 208 198 198 184
229 98 88 119 297 284 146 284 167 181 158 116 115 99 87 87 82 76 75 59 58 62 51 39 21 11 244 204 193 186 189 201 207 212 208 211 206 181 186 197 211 205 203 197 188 187 193 179 189